Location: ??????
(41.3164°N, 22.6615°E)
Time: 14:32:48
(UTC+00:00)

H-2A R/B - Pass Details

Date: 27 May 2022
Orbit: 576 x 653 km, 98.5° (Epoch: 30 June)

Event Time Altitude Azimuth Distance (km) Brightness Sun altitude
Rises 19:20:52 0° 2° (N) 2,798 6.1 -14.0°
Reaches altitude 10° 19:23:12 10° 352° (N) 1,895 5.4 -14.3°
Maximum altitude 19:26:46 30° 291° (WNW) 1,061 3.9 -14.7°
Drops below altitude 10° 19:30:21 10° 230° (SW) 1,898 4.6 -15.2°
Sets 19:32:41 0° 220° (SW) 2,802 5.3 -15.5°
